www.pogodaiklimat.ru

Погода и климат >> Архив погоды >> ОАЭ >> Дубай


АРХИВ ПОГОДЫ в Дубае

Время (UTC), дата Ветер
(напр.,м/с)
 
Видим.   Явления Облачность Т
(С)
Тd
(С)
f
(%)
Тe
(С)
Тes
(С)
Комфортность P
(гПа)
Po
(гПа)
Тmin
(С)
Tmax
(С)
R
(мм)
R24
(мм)
S
(см)
09 19.03 СЗ 8 10 км ясно +22.9 +9.5 43 +25 +28 комфорт 1015.8 1015.4
12 19.03 З 8 10 км ясно +23.1 +9.7 43 +25 +26 комфорт 1014.0 1013.6
15 19.03 СЗ 7 10 км ясно +21.2 +10.8 51 +23 +23 комфорт 1014.4 1014.0
18 19.03 З 5 10 км 3/3 900 м
[Cu hum]
+20.3 +12.4 60 +22 +22 комфорт 1015.4 1014.8 +24.1
21 19.03 З 3 10 км 1/1 900 м
[Cu hum]
+19.8 +12.7 64 +22 +22 комфорт 1013.8 1013.2
00 20.03 ЮЗ 3 10 км 5/5 840 м
[Cu hum]
+17.8 +11.9 68 +18 +18 прохладно 1013.0 1012.4
03 20.03 Ю 3 10 км 4/4 800 м
[Cu hum]
+16.0 +11.4 74 +16 +16 очень
холодно
1013.9 1013.3
06 20.03 З 3 10 км 4/4 800 м
[Sc]
+20.9 +13.2 61 +24 +31 комфорт 1015.0 1014.6 +15.8
09 20.03 З 5 10 км 1/1 900 м
[Cu hum]
+23.0 +13.6 55 +26 +36 жарко 1013.8 1013.4
12 20.03 З 5 10 км 1/0
[Ci fib]
+23.5 +13.8 54 +26 +29 жарко 1011.3 1010.9
15 20.03 З 4 10 км 4/0
[Ci fib]
+21.8 +14.3 62 +25 +25 комфорт 1012.5 1012.1
18 20.03 З 3 10 км 3/0
[Ci fib]
+21.0 +14.3 66 +24 +24 комфорт 1013.6 1013.2 +24.1
21 20.03 Ю 2 10 км ясно +19.8 +14.3 71 +22 +22 комфорт 1013.0 1012.6
00 21.03 Ю 2 10 км 3/3 500 м
[Sc]
+18.4 +13.9 75 +19 +19 по сезону 1012.4 1012.0
03 21.03 Ю 2 10 км 4/0
[Ac trans]
+17.8 +14.0 78 +18 +19 холодно 1013.6 1013.2
06 21.03 Ю 3 10 км 4/0
[Ci fib]
+21.4 +15.6 70 +25 +35 комфорт 1014.6 1014.0 +17.6
09 21.03 СЗ 2 10 км 6/0
[Ac trans Ci fib]
+28.2 +9.7 31 +28 +41 жарко 1013.2 1012.6
12 21.03 С 7 10 км 3/0
[Ac trans]
+26.2 +7.5 30 +26 +27 жарко 1011.3 1010.7
15 21.03 СЗ 3 10 км 3/0
[Ac trans]
+23.1 +16.7 67 +28 +28 душно 1012.6 1012.0
18 21.03 В 2 10 км 8/0
[Ac trans]
+22.5 +17.5 73 +27 +27 душно 1013.8 1013.4 +29.0
00 22.03 СЗ 3 10 км слаб. дождь 9/0
[Ac trans]
+23.8 +16.9 65 +27 +27 жарко 1013.5 1013.1 0.0
03 22.03 Ю 2 10 км в посл. час дождь 9/0
[Ac trans]
+22.3 +16.9 71 +27 +27 душно 1015.3 1014.9
06 22.03 В 5 10 км {дождь} 6/0
[Ac trans]
+27.4 +11.3 37 +28 +32 жарко 1015.6 1015.0 +21.5 0.4
09 22.03 СВ 3 10 км 6/0
[Ac trans]
+30.1 +10.9 31 +30 +41 жарко 1014.6 1014.0
12 22.03 СВ 8 10 км 6/0
[Ac trans]
+29.6 +11.9 34 +30 +31 жарко 1012.6 1012.0
15 22.03 СВ 7 10 км 6/0
[Ac trans]
+27.2 +8.9 32 +27 +27 жарко 1012.9 1012.3
18 22.03 В 6 10 км 8/0
[Ac As]
+25.2 +16.5 59 +29 +29 душно 1015.0 1014.4 +30.2
21 22.03 В 6 10 км 6/0
[Ac As]
+25.3 +13.0 46 +27 +27 жарко 1013.0 1012.4
00 23.03 СВ 4 10 км 6/0
[Ac As]
+25.1 +10.4 40 +26 +26 жарко 1012.4 1011.8
03 23.03 СВ 3 10 км 6/0
[Ac As]
+24.0 +11.8 46 +26 +26 жарко 1013.1 1012.5
06 23.03 ЮВ 9 8000 м пыль 5/0
[Ac trans]
+27.9 +11.3 36 +29 +30 жарко 1014.1 1013.6 +23.8 0.0
09 23.03 В 9 7000 м пыль 6/3 900 м
[Sc Ac trans]
+29.4 +13.1 37 +31 +32 жарко 1013.5 1013.0
12 23.03 В 9 4500 м пыльный позёмок 5/5 900 м
[Sc]
+29.8 +13.8 38 +32 +32 душно 1010.5 1010.0
15 23.03 В 7 6000 м пыль 6/0
[Ac trans]
+26.2 +11.8 41 +28 +28 жарко 1011.5 1011.0
18 23.03 В 7 10 км 5/0
[Ac trans]
+25.3 +11.3 42 +27 +27 жарко 1011.6 1011.0 +30.7
21 23.03 СВ 4 10 км 6/0
[Ac trans]
+25.2 +12.6 45 +27 +27 жарко 1010.2 1009.6
00 24.03 ЮВ 8 10 км гроза без осадков 8/4 1200 м
[Cb cap Ac trans]
+24.6 +14.8 54 +27 +27 жарко 1009.5 1008.9
03 24.03 СВ 7 10 км {гроза} 6/1 1200 м
[Cb cap Ac trans]
+23.7 +14.8 57 +26 +26 жарко 1011.4 1010.8
06 24.03 ЮВ 7 8000 м пыль {гроза} 3/0
[Ci fib]
+29.5 +15.1 42 +32 +36 душно 1012.0 1011.5 +23.7
09 24.03 СВ 7 10 км 9/0
[Ac trans Ci fib]
+29.7 +15.7 43 +33 +37 душно 1009.9 1009.4
12 24.03 СВ 8 10 км 9/0
[Ac trans]
+29.1 +17.8 51 +34 +34 очень
душно
1007.7 1007.2
15 24.03 В 7 5000 м пыль ясно +28.4 +15.2 45 +31 +31 душно 1008.8 1008.3
18 24.03 В 10 5000 м пыль ясно +26.3 +15.5 51 +29 +29 жарко 1009.8 1009.3 +32.9
21 24.03 В 9 10 км ясно +25.6 +17.9 62 +30 +30 душно 1009.6 1009.1
00 25.03 В 9 9000 м пыль ясно +25.2 +16.8 60 +29 +29 душно 1009.3 1008.8
03 25.03 В 8 10 км 4/0
[Ci fib]
+24.6 +17.7 65 +29 +29 душно 1010.5 1010.1
06 25.03 ЮВ 9 8000 м пыль 9/0
[Ci sp]
+28.3 +18.3 55 +33 +34 очень
душно
1012.6 1012.0 +24.4
09 25.03 Ю 7 4000 м пыль 9/3 750 м
[Sc Ci sp]
+32.5 +9.1 24 +32 +34 жарко 1011.5 1010.9
12 25.03 Ю 8 6000 м пыль 9/0
[Ac trans Ci sp]
+32.9 +8.1 22 +32 +32 жарко 1008.8 1008.2
15 25.03 В 9 6000 м пыль 8/0
[Ac trans Ci sp]
+27.4 +18.6 59 +32 +32 очень
душно
1009.4 1008.8
18 25.03 В 8 10 км 9/0
[Ac trans]
+26.1 +18.6 63 +31 +31 очень
душно
1010.6 1010.1 +33.4
21 25.03 ЮВ 9 10 км 9/0
[Ac trans]
+25.8 +19.1 67 +31 +31 очень
душно
1008.8 1008.3
00 26.03 В 3 10 км 9/0
[Ac trans]
+25.9 +18.9 65 +31 +31 очень
душно
1009.8 1009.3
03 26.03 В 4-12
{19}
10 км 9/0
[Ac trans]
+24.4 +18.9 71 +29 +29 душно 1012.0 1011.6
06 26.03 ЮВ 7 10 км 5/0
[Ci sp]
+28.9 +15.3 44 +32 +35 душно 1012.6 1012.0 +24.4

 

Местоположение метеостанции Дубай (ОАЭ): широта 25.25 долгота 55.33 высота над уровнем моря 5 м.

В архиве по умолчанию представлена погода в Дубае за последнюю неделю. Архивные данные за месяц целиком и за предыдущие месяцы, начиная с января 2011 года, Вы можете получить, выбрав интересующий диапазон дат из раскрывающегося списка и нажав кнопку "Ввод!".


*Определитесь, кто Вы:
робот инопланетянин человек

Внимание! Время в таблицах - всемирное. Для получения местного времени необходимо прибавить поправку, которая равна 4 ч.

Смотрите также архив погоды в соседних городах и на ближайших метеорологических станциях:

Погода в Шардже (ОАЭ) (21 км)
Погода в Аль-Мактум аэропорту (ОАЭ) (43 км)
Погода в Рай-эль-Хайма аэропорту (ОАЭ) (73 км)
Погода на Острове Абу-Муса (Иран) (82 км)
Погода в Дибе (Оман) (101 км)
Погода в Фуджейре (ОАЭ) (102 км)
Погода на Острове Сирри (Иран) (107 км)
Погода в Эль-Айне (ОАЭ) (112 км)
Погода в Абу-Даби (ОАЭ) (114 км)
Погода в Эль-Бурайми (Оман) (122 км)

Пояснения к столбцам:

Ветер - указаны скорость ветра в м/с - средняя за 10 мин, порывы в срок и между сроками (в фигурных скобках) и направление, откуда дует ветер: С - северный, СВ - северо-восточный, В - восточный, ЮВ - юго-восточный, Ю - южный, ЮЗ - юго-западный, З - западный, СЗ - северо-западный.
Видимость - горизонтальная дальность видимости в метрах или километрах. При видимости от 1 до 10 км при отсутствии осадков обычно наблюдается дымка, при ухудшении видимости до 1 км и менее - туман. В сухую погоду видимость может ухудшаться дымом, пылью или мглою.
Явления - указаны атмосферные явления, наблюдавшиеся в срок или в последний час перед сроком; фигурными скобками обозначены явления, наблюдавшиеся между сроками (за 1-3 часа до срока); квадратными скобками обозначены град или гололедные отложения с указанием их диаметра в мм.
Облачность - указаны через наклонную черту общая и нижняя облачность в баллах и высота нижней границы облаков в метрах; квадратными скобками обозначены формы облаков: Ci - перистые, Cs - перисто-слоистые, Cc - перисто-кучевые, Ac - высококучевые, As - высокослоистые, Sc - слоисто-кучевые, Ns - слоисто-дождевые, Cu - кучевые, Cb - кучево-дождевые. Подробнее классификацию облаков см. в Атласе облаков (PDF).
T - Температура воздуха - температура, измеренная на высоте 2 м над землей.
Td - Температура точки росы - температура, при понижении до которой содержащийся в воздухе водяной пар достигнет насыщения.
f - Относительная влажность воздуха - влажноcть воздуха, измеренная на высоте 2 м над землей.
Te - Эффективная температура - температура, которую ощущает одетый по сезону человек в тени. Характеристика душности погоды. При расчете учитывается влияние влажности воздуха и скорости ветра на теплоощущения человека.
Tes - Эффективная температура на солнце - температура, которую ощущает человек, с поправкой на солнечный нагрев. Характеристика знойности погоды. Зависит от высоты солнца над горизонтом, облачности и скорости ветра. Ночью, в пасмурную погоду, а также при ветре 12 м/с и более поправка равна нулю.
P - Атмосферное давление - приведенное к уровню моря атмосферное давление.
Po - Атмосферное давление - измеренное на уровне метеостанции атмосферное давление.
Tmin - Минимальная температура - минимум температуры воздуха на высоте 2 м над землей.
Tmax - Максимальная температура - максимум температуры воздуха на высоте 2 м над землей.
R - Количество осадков - Количество выпавших осадков за период времени, мм. При наведении курсора мыши на число - период времени, за который выпало указанное количество осадков.
R24 - Количество осадков - Количество выпавших осадков за 24 часа, мм.
S - Снежный покров - Высота снежного покрова, см. При наведении курсора мыши на число - состояние снежного покрова и степень покрытия местности в баллах.